Flag for U.S.A. Weather past 2 weeks in Clarksville, Tennessee, U.S.A.

62 °F

Light rain. More clouds than sun.

Feels Like: 62 °F
Forecast: 52 / 62 °F
Wind: 7 mph from South

Location: Outlaw Field

Current Time: Nov 28, 2015 at 2:27:52 PM

Latest Report: Nov 28, 2015 at 1:52 PM

Visibility: 9 mi

Pressure: 30.12 "Hg

Humidity: 93%

Dew point: 60 °F

Location of ClarksvilleLocation

Historic Weather in Clarksville — Graph


Clarksville temperature yesterday

Maximum temperature yesterday: 66 °F (at 1:52 PM)
Minimum temperature yesterday: 58 °F (at 11:52 PM)
Average temperature yesterday: 62 °F

Past Weeks' High & Low Weather Summary

High72 °F (Nov 17, 12:52 PM)97% (Nov 18, 6:04 AM)30.51 "Hg (Nov 18, 6:04 AM)
Low21 °F (Nov 23, 3:52 AM)21% (Nov 13, 1:52 PM)29.70 "Hg (Nov 18, 12:52 PM)
Average50 °F66%30.22 "Hg
* Reported Nov 13 1:52 PM — Nov 28 1:04 PM, Clarksville, Weather by CustomWeather, © 2015

Note: Actual official high and low records may vary slightly from our data, if they occured in-between our weather recording intervals... More about our weather records


Clarksville weather history for previous 24 hours

Time TempWeatherWind HumidityBarometerVisibility
1:04 PM
Sat, Nov 28
62 °FLight rain. Mostly cloudy.8 mph93%30.14 "Hg9 mi
12:52 PM62 °FLight rain. Overcast.8 mph93%30.14 "Hg9 mi
11:52 AM62 °FLight rain. Mostly cloudy.9 mph93%30.16 "Hg10 mi
11:00 AM61 °FLight rain. Mostly cloudy.9 mph93%30.19 "Hg9 mi
10:52 AM61 °FLight rain. Cloudy.13 mph93%30.19 "Hg7 mi
9:52 AM61 °FRain. Fog.9 mph93%30.22 "Hg4 mi
8:52 AM61 °FLight rain. Fog.10 mph90%30.22 "Hg5 mi
7:52 AM60 °FLight rain. Fog.10 mph93%30.22 "Hg6 mi
6:52 AM60 °FLight rain. Overcast.9 mph90%30.21 "Hg8 mi
5:52 AM59 °FLight rain. Mostly cloudy.5 mph93%30.20 "Hg10 mi
4:52 AM59 °FOvercast.5 mph90%30.19 "Hg10 mi
3:52 AM58 °FLight rain. Overcast.5 mph93%30.19 "Hg10 mi
2:52 AM60 °FPassing clouds.3 mph83%30.20 "Hg10 mi
1:52 AM59 °FPassing clouds.6 mph87%30.20 "Hg10 mi
12:52 AM59 °FLight rain. Overcast.6 mph87%30.21 "Hg10 mi
11:52 PM
Fri, Nov 27
58 °FOvercast.5 mph90%30.23 "Hg10 mi
10:52 PM60 °FLight rain. Overcast.No wind83%30.24 "Hg10 mi
9:52 PM60 °FLight rain. Passing clouds.No wind83%30.24 "Hg10 mi
8:52 PM60 °FPassing clouds.3 mph83%30.24 "Hg10 mi
7:52 PM61 °FLight rain. Overcast.8 mph81%30.24 "Hg10 mi
6:52 PM61 °FOvercast.6 mph81%30.26 "Hg10 mi
5:52 PM62 °FLight rain. Overcast.6 mph78%30.27 "Hg10 mi
4:52 PM64 °FOvercast.No wind70%30.25 "Hg10 mi
3:52 PM64 °FOvercast.5 mph70%30.25 "Hg10 mi
2:52 PM65 °FOvercast.6 mph68%30.27 "Hg10 mi
Weather by CustomWeather, © 2015

See weather overviewHow to use our weather pages